Terminal Aerodrome Forecast
Issued by NWS Green Bay, WI

Home | Current Version | Previous Version | Text Only | Print | Product List | Glossary On
Versions: 1 2 3 4 5 6 7 8 9 10 11 12 13 14 15 16 17 18 19 20 21 22 23 24 25 26 27 28 29 30 31 32
000
FTUS43 KGRB 192300
TAFGRB
TAF
KGRB 192334Z 2000/2024 05010KT P6SM SCT070 BKN120
     FM200300 07007KT P6SM -RA SCT015 OVC030
     FM200600 03007KT 6SM -RA BKN007 OVC012
      TEMPO 2006/2009 4SM -RA BR OVC007
     FM201200 32010KT P6SM -RA SCT009 OVC012
      TEMPO 2012/2015 6SM -RA BR BKN009
     FM201800 27015G25KT P6SM -RA SCT015 OVC025=

USA.gov is the U.S. government's official web portal to all federal, state and local government web resources and services.